Tracking 22882 objects as of 18-Apr-2021
HD Live streaming from Space Station
objects crossing your sky now

EKRAN 7

Track EKRAN 7 now!
EKRAN 7 is classified as:


NORAD ID: 12564
Int'l Code: 1981-061A
Perigee: 35,749.5 km
Apogee: 35,805.5 km
Inclination: 10.9 °
Period: 1,435.3 minutes
Semi major axis: 42148 km
RCS: 3.9811 m2 (large)
Launch date: June 26, 1981
Source: Commonwealth of Independent States (former USSR) (CIS)
Launch site: TYURATAM MISSILE AND SPACE COMPLEX (TTMTR)
aabbcc
Your satellite tracking list
Your tracking list is empty




NASA's NSSDC Master Catalog

Two Line Element Set (TLE):
1 12564U 81061A   21108.56798351 -.00000102  00000-0  00000-0 0  9994
2 12564  10.8514 312.0303 0006650  60.2337 113.1874  1.00329787110609
Source of the keplerian elements: AFSPC